Weather History for KDAN - July, 2013

Change the Weather History Date:

Sunday, July 28, 2013

  Actual Average Record
Temperature  
Mean Temperature 78 °F 78 °F  
Max Temperature 86 °F 87 °F 104 °F (1952)
Min Temperature 69 °F 69 °F 51 °F (1962)
Degree Days  
Heating Degree Days 0 0  
Month to date heating degree days 0 0  
Since 1 June heating degree days 0 3  
Since 1 July heating degree days 0 0  
Cooling Degree Days 13 13  
Month to date cooling degree days 391 364  
Year to date cooling degree days 864 805  
Since 1 June cooling degree days 702 661  
Growing Degree Days 28 (Base 50)    
Moisture  
Dew Point 68 °F    
Average Humidity 77    
Maximum Humidity 97    
Minimum Humidity 57    
Precipitation  
Precipitation 0.20 in 0.14 in 1.23 in (1965)
Month to date precipitation 10.30 4.16  
Year to date precipitation 36.45 25.89  
Snow  
Snow 0.00 in - - ()
Month to date snowfall 0.0  
Since 1 June snowfall 0.0  
Since 1 July snowfall 0.0  
Snow Depth 0.00 in    
Sea Level Pressure  
Sea Level Pressure 29.95 in    
Wind  
Wind Speed 3 mph (WSW)    
Max Wind Speed 15 mph    
Max Gust Speed 21 mph    
Visibility 9 miles    
Events Thunderstorm    
T = Trace of Precipitation, MM = Missing Value Source: NWS Daily Summary

Daily Weather History Graph

Daily Weather History Graph

Search for Another Location

Airport or City:

Trip Planner

Search our weather history database for the weather conditions in past years. The results will help you decide how hot, cold, wet, or windy it might be!

Date:

Astronomy

Jul. 28, 2013 Rise Set
Actual Time 6:20 AM EDT 8:26 PM EDT
Civil Twilight 5:51 AM EDT 8:55 PM EDT
Nautical Twilight 5:16 AM EDT 9:30 PM EDT
Astronomical Twilight 4:38 AM EDT 10:08 PM EDT
Moon No Moon Rise 12:48 PM EDT (7/28)
Length of Visible Light 15h 03m
Length of Day
14h 06m
Waning Gibbous, 61% of the Moon is Illuminated
Jul 28
Waning Gibbous
Jul 29
Last Quarter
Aug 6
New
Aug 14
First Quarter
Aug 20
Full

Hourly Weather History & Observations

Time (EDT) Temp. Heat Index Dew Point Humidity Pressure Visibility Wind Dir Wind Speed Gust Speed Precip Events Conditions
12:53 AM 69.1 °F - 66.9 °F 93% 29.94 in 10.0 mi Calm Calm - N/A   Scattered Clouds
1:31 AM 69.8 °F - 66.2 °F 88% 29.96 in 10.0 mi Calm Calm - N/A   Overcast
1:45 AM 69.8 °F - 66.2 °F 88% 29.96 in 10.0 mi Calm Calm - N/A   Mostly Cloudy
1:53 AM 69.1 °F - 66.9 °F 93% 29.93 in 10.0 mi Calm Calm - N/A   Mostly Cloudy
2:04 AM 69.8 °F - 66.2 °F 88% 29.95 in 10.0 mi Calm Calm - N/A   Mostly Cloudy
2:22 AM 69.8 °F - 66.2 °F 88% 29.95 in 9.0 mi Calm Calm - N/A   Overcast
2:32 AM 69.8 °F - 66.2 °F 88% 29.94 in 9.0 mi Calm Calm - N/A   Overcast
2:53 AM 69.1 °F - 66.9 °F 93% 29.92 in 8.0 mi Calm Calm - N/A   Overcast
3:33 AM 69.8 °F - 66.2 °F 88% 29.95 in 10.0 mi Calm Calm - N/A   Overcast
3:53 AM 70.0 °F - 66.9 °F 90% 29.92 in 10.0 mi Calm Calm - N/A   Overcast
4:28 AM 69.8 °F - 66.2 °F 88% 29.95 in 7.0 mi Calm Calm - N/A   Overcast
4:53 AM 69.1 °F - 66.9 °F 93% 29.92 in 8.0 mi Calm Calm - N/A   Overcast
5:07 AM 69.8 °F - 66.2 °F 88% 29.95 in 6.0 mi SSW 3.5 mph - N/A   Overcast
5:22 AM 69.8 °F - 68.0 °F 94% 29.95 in 7.0 mi SSW 3.5 mph - N/A   Overcast
5:44 AM 69.8 °F - 68.0 °F 94% 29.96 in 7.0 mi Calm Calm - 0.01 in   Overcast
5:53 AM 70.0 °F - 68.0 °F 93% 29.93 in 8.0 mi South 4.6 mph - 0.01 in   Overcast
6:03 AM 69.8 °F - 68.0 °F 94% 29.96 in 7.0 mi Calm Calm - N/A   Overcast
6:53 AM 70.0 °F - 68.0 °F 93% 29.94 in 8.0 mi WSW 3.5 mph - N/A   Mostly Cloudy
7:46 AM 71.6 °F - 69.8 °F 94% 29.97 in 6.0 mi Calm Calm - N/A   Mostly Cloudy
7:53 AM 71.1 °F - 69.1 °F 93% 29.94 in 6.0 mi Calm Calm - N/A   Mostly Cloudy
8:33 AM 71.6 °F - 69.8 °F 94% 29.97 in 10.0 mi SW 5.8 mph - N/A   Overcast
8:53 AM 73.0 °F - 70.0 °F 90% 29.94 in 10.0 mi WSW 4.6 mph - N/A   Overcast
9:13 AM 75.2 °F - 69.8 °F 83% 29.97 in 10.0 mi WSW 5.8 mph - N/A   Scattered Clouds
9:28 AM 73.4 °F - 69.8 °F 88% 29.97 in 10.0 mi WSW 6.9 mph - N/A   Mostly Cloudy
9:48 AM 75.2 °F - 69.8 °F 83% 29.97 in 10.0 mi West 8.1 mph - N/A   Overcast
9:53 AM 75.0 °F - 69.1 °F 82% 29.94 in 10.0 mi West 6.9 mph - N/A   Overcast
10:06 AM 75.2 °F - 69.8 °F 83% 29.97 in 10.0 mi West 9.2 mph - N/A   Overcast
10:53 AM 78.1 °F - 70.0 °F 76% 29.95 in 10.0 mi WSW 5.8 mph - N/A   Overcast
11:53 AM 78.1 °F - 70.0 °F 76% 29.96 in 10.0 mi WSW 6.9 mph - N/A   Overcast
12:21 PM 78.8 °F - 69.8 °F 74% 29.99 in 10.0 mi SW 8.1 mph - N/A   Mostly Cloudy
12:53 PM 81.0 °F 84.4 °F 70.0 °F 69% 29.95 in 10.0 mi SW 4.6 mph - N/A   Scattered Clouds
1:53 PM 84.0 °F 88.4 °F 70.0 °F 63% 29.94 in 10.0 mi SSW 6.9 mph - N/A   Partly Cloudy
2:53 PM 84.9 °F 88.8 °F 69.1 °F 59% 29.92 in 10.0 mi Variable 6.9 mph - N/A   Scattered Clouds
3:53 PM 86.0 °F 90.1 °F 69.1 °F 57% 29.91 in 10.0 mi SW 5.8 mph - N/A   Partly Cloudy
4:53 PM 84.9 °F 88.8 °F 69.1 °F 59% 29.91 in 10.0 mi SSW 6.9 mph - N/A   Clear
5:53 PM 84.9 °F 88.8 °F 69.1 °F 59% 29.90 in 10.0 mi Variable 4.6 mph - N/A   Clear
6:53 PM 80.1 °F 82.7 °F 68.0 °F 67% 29.91 in 10.0 mi SSW 4.6 mph - N/A   Clear
7:19 PM 78.8 °F - 69.8 °F 74% 29.96 in 10.0 mi Calm Calm - N/A Thunderstorm Clear
7:34 PM 78.8 °F - 68.0 °F 69% 29.97 in 10.0 mi NW 15.0 mph 20.7 mph N/A   Partly Cloudy
7:53 PM 77.0 °F - 68.0 °F 74% 29.94 in 10.0 mi Calm Calm - N/A   Partly Cloudy
8:53 PM 72.0 °F - 69.1 °F 91% 29.96 in 10.0 mi Calm Calm - N/A   Clear
9:53 PM 72.0 °F - 68.0 °F 87% 29.96 in 10.0 mi Calm Calm - N/A   Scattered Clouds
10:53 PM 71.1 °F - 68.0 °F 90% 29.97 in 10.0 mi Calm Calm - N/A   Partly Cloudy
11:53 PM 69.1 °F - 66.9 °F 93% 29.98 in 9.0 mi Calm Calm - N/A   Partly Cloudy